Hourly Data Report for August 22, 2006

TORONTO CITY
ONTARIO

43°40'00.000" N
79°24'00.000" W
112.50 m
6158355
71508
XTO

Download Data

Hourly Data (August 2006)
Hourly Data Report for August 22, 2006
TIME
LST
Temp Definition
°C
Dew Point Definition
°C
Rel Hum Definition
%
Precip. Amount Definition
mm

Wind Dir Definition
10's deg

Wind Spd Definition
km/h
Visibility Definition
km
Stn Press Definition
kPa
Hmdx Definition


Wind Chill Definition


Weather Definition


00:00 20.1 13.1 64   LegendMM LegendMM   100.41     LegendNANA
01:00 19.1 13.5 70   LegendMM LegendMM   100.42     LegendNANA
02:00 19.3 15.0 76   LegendMM LegendMM   100.40     LegendNANA
03:00 19.0 15.4 80   LegendMM LegendMM   100.36     LegendNANA
04:00 18.9 15.6 81   LegendMM LegendMM   100.33     LegendNANA
05:00 18.5 15.4 82   LegendMM LegendMM   100.33     LegendNANA
06:00 18.8 15.5 81   LegendMM LegendMM   100.36     LegendNANA
07:00 19.9 16.1 79   LegendMM LegendMM   100.37     LegendNANA
08:00 21.7 17.1 75   LegendMM LegendMM   100.37 27   LegendNANA
09:00 24.1 16.9 64   LegendMM LegendMM   100.34 29   LegendNANA
10:00 25.2 18.0 64   LegendMM LegendMM   100.35 31   LegendNANA
11:00 26.0 15.9 54   LegendMM LegendMM   100.32 31   LegendNANA
12:00 26.6 16.3 53   LegendMM LegendMM   100.28 31   LegendNANA
13:00 27.8 13.6 42   LegendMM LegendMM   100.27 31   LegendNANA
14:00 27.7 13.4 41   LegendMM LegendMM   100.23 31   LegendNANA
15:00 28.1 12.7 39   LegendMM LegendMM   100.21 31   LegendNANA
16:00 27.4 12.0 38   LegendMM LegendMM   100.20 30   LegendNANA
17:00 26.0 11.3 40   LegendMM LegendMM   100.23 28   LegendNANA
18:00 25.4 11.6 42   LegendMM LegendMM   100.26 27   LegendNANA
19:00 23.5 11.7 47   LegendMM LegendMM   100.30 26   LegendNANA
20:00 22.5 11.6 50   LegendMM LegendMM   100.33 25   LegendNANA
21:00 21.0 11.8 56   LegendMM LegendMM   100.37     LegendNANA
22:00 20.0 12.4 62   LegendMM LegendMM   100.38     LegendNANA
23:00 19.5 10.3 55   LegendMM LegendMM   100.40     LegendNANA

Notes on Data Quality.

Legend

  • E = Estimated
  • M = Missing
  • NA = Not Available*
  • [empty] = Indicates an unobserved value
Date modified: